OneWeb SL0372

operational
NORAD ID: 49298 Int'l Des: 2021-090 Owner: ONEWEBN Country: UK Constellation: oneweb
LEOCIRCULARPOLARONEWEB_TYPE

OneWeb SL0372について

説明を読み込み中...

リアルタイム位置

3D地球を読み込み中...

次回通過

高度履歴

Altitude vs Time

uPlot chart will show altitude changes over time

軌道要素

1 49298U 21090V 25305.51219450 .00000012 00000-0 -24137-5 0 9992
2 49298 87.9187 319.8500 0001901 92.3080 267.8271 13.20771096199786
Epoch: Nov 1, 2025 • Age: 24 hours

現在のステータス

高度 1193.4 km
速度 7.26 km/s
衛星直下点 75.75°N, 97.38°W
打ち上げ日 Oct 14, 2021
運用期間 4 years
タイプ internet

技術仕様

分類 Payload
質量 148.00 kg
乾燥質量 140.00 kg
総質量 148.00 kg
長さ 1.30 m
直径 1.00 m
スパン 5.00 m
形状 Trapezoid+2 pan
製造者 ONEWUS
バスタイプ ARROW
フェーズステータス In Orbit
所有者/国 ONEWEBN/UK

大規模コンステレーション

Loading constellations...